SCP
0 0 0 0 0 0 0 0 0 0 -0 0 -0 -0 -0 0 0 0 0 -1 -1 -1 -1 -0 -0 -1 -1 -1 -0 -0 0 0
0 0 0 0 0 0 0 0 0 0 0 -0 0 -0 0 0 0 0 -0 -0 -0 -1 -1 -1 -0 -0 -1 -1 -0 -0 0 0
0 0 -0 0 0 0 0 0 0 0 0 -0 -0 -0 0 0 0 -0 -0 -0 -1 -1 -1 -1 -0 -0 -0 -0 -1 -0 -0 -0
0 0 0 0 0 0 0 0 -0 -0 -0 -0 0 -0 -0 -0 0 0 0 1 -0 -1 -1 -1 -0 -0 -0 -0 -1 -0 0 0
0 0 0 0 0 0 0 0 -0 -0 -0 0 0 -0 0 -0 -0 0 0 1 1 -0 -0 -1 -0 -0 -0 -0 -0 -0 -0 -0
0 0 0 0 0 0 0 0 0 -0 -0 0 0 0 0 0 0 0 0 1 1 1 -0 -1 -1 -0 -0 -0 0 0 -0 -0
-0 0 0 0 0 0 0 0 0 -0 0 0 0 0 0 0 0 0 0 1 1 1 0 -0 -0 -0 0 0 -0 0 -0 -0
-0 -0 -0 0 0 0 0 0 0 0 0 0 0 0 0 0 0 0 0 1 1 1 1 0 0 -0 0 0 0 -0 -0 -1
0 -0 0 -0 0 0 0 0 0 0 0 0 0 0 0 0 0 0 0 0 0 0 1 2 1 -0 -0 0 1 0 -0 -0
0 0 0 0 0 0 0 0 0 0 0 0 0 0 0 0 0 0 0 0 0 0 0 0 1 0 0 1 2 1 1 1
0 0 0 0 0 0 0 0 0 0 0 0 1 1 2 2 2 2 1 1 1 0 0 0 0 0 0 1 2 3 1 1
0 0 0 0 0 0 0 0 0 1 1 0 1 1 1 1 2 2 2 2 1 1 0 1 0 0 1 1 1 1 1 1
0 0 0 0 0 0 0 0 0 0 0 1 0 0 0 0 1 4 4 3 1 1 1 1 1 0 0 1 1 1 2 2
0 0 0 0 0 0 0 0 0 0 0 0 0 0 0 0 1 2 5 3 2 1 2 1 1 0 1 2 2 2 2 2
0 0 -0 0 0 0 0 0 0 0 0 0 0 0 0 0 0 0 4 5 5 3 3 3 3 2 1 2 3 3 5 2
0 0 0 0 0 0 0 0 0 0 0 0 0 0 0 0 1 0 1 2 3 3 4 3 2 2 2 2 2 3 2 2
0 0 0 0 0 0 0 0 0 0 0 0 0 0 0 0 0 0 0 0 1 2 4 1 1 2 2 2 2 2 3 3
0 0 0 0 0 0 0 0 0 0 0 0 0 0 0 0 0 0 0 0 0 1 2 1 0 0 1 1 1 2 3 3
-0 0 0 0 0 0 0 0 0 0 0 0 0 0 0 0 0 0 0 1 1 2 2 1 1 0 0 1 2 2 3 3
Wind_Speed_500mb
57 30 37 39 39 23 5 12 8 11 21 21 36 30 15 34 57 83 107 105 106 116 117 119 110 108 108 105 99 94 88 81
42 46 45 35 24 24 18 19 20 19 31 34 29 42 27 21 28 74 108 116 105 113 112 120 115 111 106 106 100 94 88 84
35 52 57 25 25 30 11 11 12 9 19 37 43 42 30 31 45 94 88 105 114 112 114 114 113 111 107 106 102 95 87 81
53 33 50 32 32 36 23 28 12 10 20 17 23 52 38 38 51 69 85 97 112 117 114 106 110 107 106 105 104 98 88 84
37 25 33 61 46 33 17 10 25 11 13 11 21 42 40 38 52 50 80 95 104 106 102 105 109 108 104 103 103 96 92 86
22 31 15 50 45 43 25 25 32 17 14 15 18 20 19 38 38 73 50 83 98 98 100 105 105 106 103 101 98 94 91 89
27 28 26 33 50 43 45 26 33 23 13 9 4 14 14 31 33 49 57 87 92 96 96 103 102 102 100 96 93 93 87 88
10 22 29 36 53 46 41 38 20 29 17 16 15 47 42 49 51 52 44 50 66 82 100 109 109 100 99 100 95 90 90 82
9 11 11 6 29 47 36 36 32 25 16 11 15 25 30 49 45 43 46 44 41 37 66 73 92 102 100 99 95 95 94 91
9 11 5 14 9 23 36 19 39 28 22 23 18 41 47 54 52 36 34 31 29 24 20 26 21 68 95 95 96 92 94 93
8 3 6 9 25 22 7 22 46 22 8 28 56 73 53 59 57 50 39 30 20 17 12 7 24 25 57 84 95 96 91 92
9 9 4 23 52 63 17 21 41 40 37 28 44 23 10 49 48 45 39 27 14 7 9 13 15 39 56 63 70 90 91 89
9 7 12 35 49 38 14 7 35 51 48 62 35 27 46 45 51 43 34 28 11 2 7 11 6 1 23 52 72 70 70 70
1 7 8 68 45 27 12 37 45 54 63 54 61 61 49 45 51 59 43 29 20 11 13 16 19 18 12 16 19 43 65 71
11 5 28 26 37 45 47 41 50 47 54 49 60 61 55 46 45 49 53 41 23 17 20 16 6 18 26 22 25 25 40 41
13 24 29 23 16 43 44 37 39 45 42 45 47 47 50 50 46 44 44 40 27 22 33 14 8 14 22 31 39 43 41 40
17 17 35 33 49 56 59 44 26 30 32 29 30 37 41 43 44 47 34 31 25 23 32 23 22 18 20 25 30 29 28 34
14 46 17 42 58 57 56 52 43 49 30 29 19 26 35 38 38 41 45 35 29 26 24 29 29 31 27 29 26 24 28 32
57 60 65 59 58 51 42 41 38 38 40 36 36 33 36 50 45 42 43 31 31 30 30 32 29 30 26 20 18 20 24 28
Wind_Direction_500mb
229 209 211 204 216 210 229 213 167 214 265 278 258 260 226 189 167 182 185 184 186 186 192 195 197 203 208 213 215 217 221 222
216 231 226 213 172 210 216 201 219 231 218 232 231 241 226 208 188 176 181 185 183 186 190 197 199 203 207 216 219 220 221 224
234 208 216 200 194 201 190 197 184 222 240 226 222 220 210 216 221 192 179 178 181 184 190 199 198 201 206 214 218 221 224 224
242 230 212 217 210 197 203 227 232 227 262 333 246 203 201 202 209 183 183 174 177 184 191 191 194 199 206 212 220 225 227 226
243 256 250 212 202 210 180 162 231 210 269 301 304 184 186 193 199 193 177 169 174 179 184 189 195 198 206 213 218 224 226 228
250 230 227 208 200 203 196 205 231 227 231 310 4 124 148 166 176 201 163 165 173 177 182 191 198 199 207 211 217 222 226 229
267 270 266 237 199 197 207 202 207 227 219 201 71 89 105 131 135 179 172 174 172 181 182 190 197 202 206 211 214 218 225 230
291 262 265 272 201 193 204 212 235 221 234 198 151 103 85 88 99 96 98 169 172 177 184 191 201 205 207 209 213 216 221 230
302 279 285 213 248 196 204 202 210 234 195 169 126 127 127 109 97 92 89 88 99 118 190 191 196 203 207 211 215 216 220 226
285 33 112 257 322 304 197 199 210 230 168 164 127 65 79 109 115 98 89 81 78 86 127 152 176 210 213 213 213 218 222 226
319 310 298 268 3 346 249 54 7 351 180 119 97 70 36 54 68 69 76 76 73 69 55 180 201 206 207 213 214 217 221 228
348 310 192 357 340 325 305 57 2 15 32 108 88 79 33 46 54 60 66 67 76 67 42 67 79 212 208 209 210 215 221 227
282 296 1 342 345 15 69 55 12 20 28 54 70 75 61 56 49 45 47 55 76 109 341 24 339 244 173 212 222 230 230 232
11 359 16 355 14 57 84 43 35 21 23 46 52 53 51 42 41 44 56 47 43 31 349 320 315 289 267 203 198 224 235 238
338 92 71 360 338 9 37 39 25 25 22 34 36 33 33 27 28 31 42 55 62 30 9 353 243 274 275 257 239 238 229 234
328 7 340 33 354 349 353 9 5 9 20 29 30 22 18 20 17 18 29 43 38 30 23 334 272 251 258 266 263 260 258 253
303 23 342 356 354 350 342 353 345 342 347 0 16 10 4 10 4 3 12 21 11 359 8 330 299 281 266 251 250 249 248 238
293 312 319 307 322 327 337 344 348 5 339 342 351 6 344 349 3 358 2 353 346 335 316 307 305 306 303 278 260 245 229 224
291 293 296 293 301 307 317 325 331 344 358 2 358 358 351 341 349 354 353 343 332 313 300 296 295 300 310 303 261 221 217 219
Wind_Speed_850mb
57 30 37 39 39 23 5 12 8 11 21 21 36 30 15 34 57 83 107 105 106 116 117 119 110 108 108 105 99 94 88 81
42 46 45 35 24 24 18 19 20 19 31 34 29 42 27 21 28 74 108 116 105 113 112 120 115 111 106 106 100 94 88 84
35 52 57 25 25 30 11 11 12 9 19 37 43 42 30 31 45 94 88 105 114 112 114 114 113 111 107 106 102 95 87 81
53 33 50 32 32 36 23 28 12 10 20 17 23 52 38 38 51 69 85 97 112 117 114 106 110 107 106 105 104 98 88 84
37 25 33 61 46 33 17 10 25 11 13 11 21 42 40 38 52 50 80 95 104 106 102 105 109 108 104 103 103 96 92 86
22 31 15 50 45 43 25 25 32 17 14 15 18 20 19 38 38 73 50 83 98 98 100 105 105 106 103 101 98 94 91 89
27 28 26 33 50 43 45 26 33 23 13 9 4 14 14 31 33 49 57 87 92 96 96 103 102 102 100 96 93 93 87 88
10 22 29 36 53 46 41 38 20 29 17 16 15 47 42 49 51 52 44 50 66 82 100 109 109 100 99 100 95 90 90 82
9 11 11 6 29 47 36 36 32 25 16 11 15 25 30 49 45 43 46 44 41 37 66 73 92 102 100 99 95 95 94 91
9 11 5 14 9 23 36 19 39 28 22 23 18 41 47 54 52 36 34 31 29 24 20 26 21 68 95 95 96 92 94 93
8 3 6 9 25 22 7 22 46 22 8 28 56 73 53 59 57 50 39 30 20 17 12 7 24 25 57 84 95 96 91 92
9 9 4 23 52 63 17 21 41 40 37 28 44 23 10 49 48 45 39 27 14 7 9 13 15 39 56 63 70 90 91 89
9 7 12 35 49 38 14 7 35 51 48 62 35 27 46 45 51 43 34 28 11 2 7 11 6 1 23 52 72 70 70 70
1 7 8 68 45 27 12 37 45 54 63 54 61 61 49 45 51 59 43 29 20 11 13 16 19 18 12 16 19 43 65 71
11 5 28 26 37 45 47 41 50 47 54 49 60 61 55 46 45 49 53 41 23 17 20 16 6 18 26 22 25 25 40 41
13 24 29 23 16 43 44 37 39 45 42 45 47 47 50 50 46 44 44 40 27 22 33 14 8 14 22 31 39 43 41 40
17 17 35 33 49 56 59 44 26 30 32 29 30 37 41 43 44 47 34 31 25 23 32 23 22 18 20 25 30 29 28 34
14 46 17 42 58 57 56 52 43 49 30 29 19 26 35 38 38 41 45 35 29 26 24 29 29 31 27 29 26 24 28 32
57 60 65 59 58 51 42 41 38 38 40 36 36 33 36 50 45 42 43 31 31 30 30 32 29 30 26 20 18 20 24 28
Wind_Direction_850mb
229 209 211 204 216 210 229 213 167 214 265 278 258 260 226 189 167 182 185 184 186 186 192 195 197 203 208 213 215 217 221 222
216 231 226 213 172 210 216 201 219 231 218 232 231 241 226 208 188 176 181 185 183 186 190 197 199 203 207 216 219 220 221 224
234 208 216 200 194 201 190 197 184 222 240 226 222 220 210 216 221 192 179 178 181 184 190 199 198 201 206 214 218 221 224 224
242 230 212 217 210 197 203 227 232 227 262 333 246 203 201 202 209 183 183 174 177 184 191 191 194 199 206 212 220 225 227 226
243 256 250 212 202 210 180 162 231 210 269 301 304 184 186 193 199 193 177 169 174 179 184 189 195 198 206 213 218 224 226 228
250 230 227 208 200 203 196 205 231 227 231 310 4 124 148 166 176 201 163 165 173 177 182 191 198 199 207 211 217 222 226 229
267 270 266 237 199 197 207 202 207 227 219 201 71 89 105 131 135 179 172 174 172 181 182 190 197 202 206 211 214 218 225 230
291 262 265 272 201 193 204 212 235 221 234 198 151 103 85 88 99 96 98 169 172 177 184 191 201 205 207 209 213 216 221 230
302 279 285 213 248 196 204 202 210 234 195 169 126 127 127 109 97 92 89 88 99 118 190 191 196 203 207 211 215 216 220 226
285 33 112 257 322 304 197 199 210 230 168 164 127 65 79 109 115 98 89 81 78 86 127 152 176 210 213 213 213 218 222 226
319 310 298 268 3 346 249 54 7 351 180 119 97 70 36 54 68 69 76 76 73 69 55 180 201 206 207 213 214 217 221 228
348 310 192 357 340 325 305 57 2 15 32 108 88 79 33 46 54 60 66 67 76 67 42 67 79 212 208 209 210 215 221 227
282 296 1 342 345 15 69 55 12 20 28 54 70 75 61 56 49 45 47 55 76 109 341 24 339 244 173 212 222 230 230 232
11 359 16 355 14 57 84 43 35 21 23 46 52 53 51 42 41 44 56 47 43 31 349 320 315 289 267 203 198 224 235 238
338 92 71 360 338 9 37 39 25 25 22 34 36 33 33 27 28 31 42 55 62 30 9 353 243 274 275 257 239 238 229 234
328 7 340 33 354 349 353 9 5 9 20 29 30 22 18 20 17 18 29 43 38 30 23 334 272 251 258 266 263 260 258 253
303 23 342 356 354 350 342 353 345 342 347 0 16 10 4 10 4 3 12 21 11 359 8 330 299 281 266 251 250 249 248 238
293 312 319 307 322 327 337 344 348 5 339 342 351 6 344 349 3 358 2 353 346 335 316 307 305 306 303 278 260 245 229 224
291 293 296 293 301 307 317 325 331 344 358 2 358 358 351 341 349 354 353 343 332 313 300 296 295 300 310 303 261 221 217 219